Weather History for Guam Agana, GU

Change the Weather History Date:

Friday, February 22, 2013

  Actual Average Record
Temperature  
Mean Temperature 82 °F -  
Max Temperature 86 °F 83 °F 88 °F (2007)
Min Temperature 77 °F 73 °F 72 °F (2011)
Cooling Degree Days 16    
Growing Degree Days 32 (Base 50)    
Moisture  
Dew Point 73 °F    
Average Humidity 75    
Maximum Humidity 86    
Minimum Humidity 61    
Precipitation  
Precipitation 0.00 in - - ()
Sea Level Pressure  
Sea Level Pressure 29.88 in    
Wind  
Wind Speed 14 mph (ENE)    
Max Wind Speed 24 mph    
Max Gust Speed 31 mph    
Visibility 10 miles    
Events      
Averages and records for this station are not official NWS values.
T = Trace of Precipitation, MM = Missing Value Source: NWS Daily Summary

Daily Weather History Graph

Daily Weather History Graph

Search for Another Location

Airport:

Trip Planner

Search our weather history database for the weather conditions in past years. The results will help you decide how hot, cold, wet, or windy it might be!

Date:

Astronomy

Feb. 22, 2013 Rise Set
Actual Time 6:40 AM ChST 6:28 PM ChST
Civil Twilight 6:19 AM ChST 6:49 PM ChST
Nautical Twilight 5:54 AM ChST 7:14 PM ChST
Astronomical Twilight 5:29 AM ChST 7:39 PM ChST
Moon 3:24 PM ChST (2/22) 3:36 AM ChST (2/22)
Length of Visible Light 12h 30m
Length of Day
11h 47m
Waxing Gibbous, 86% of the Moon is Illuminated
Feb 22
Waxing Gibbous
Feb 26
Full
Mar 5
Last Quarter
Mar 12
New
Mar 20
First Quarter

Hourly Weather History & Observations

Time (ChST) Temp. Heat Index Dew Point Humidity Pressure Visibility Wind Dir Wind Speed Gust Speed Precip Events Conditions
12:54 AM 79.0 °F - 72.5 °F 80% 29.87 in 10.0 mi ENE 13.8 mph - N/A   Clear
1:54 AM 78.6 °F - 72.3 °F 81% 29.85 in 10.0 mi ENE 12.7 mph - N/A   Partly Cloudy
2:54 AM 78.6 °F - 72.9 °F 82% 29.83 in 10.0 mi ENE 10.4 mph - N/A   Mostly Cloudy
3:06 AM - - - N/A% 29.85 in 10.0 mi ENE 12.7 mph - N/A   Scattered Clouds
3:54 AM 78.8 °F - 71.6 °F 78% 29.84 in 10.0 mi East 12.7 mph - N/A   Partly Cloudy
4:25 AM 78.8 °F - 71.6 °F 78% 29.84 in 10.0 mi East 12.7 mph 21.9 mph N/A   Partly Cloudy
4:54 AM 78.8 °F - 72.1 °F 80% 29.83 in 10.0 mi East 13.8 mph - N/A   Partly Cloudy
5:54 AM 78.1 °F - 71.1 °F 79% 29.85 in 10.0 mi East 12.7 mph - N/A   Partly Cloudy
6:54 AM 77.9 °F - 71.2 °F 80% 29.87 in 10.0 mi East 15.0 mph - N/A   Partly Cloudy
7:54 AM 78.1 °F - 72.0 °F 81% 29.90 in 10.0 mi ENE 10.4 mph - N/A   Mostly Cloudy
8:07 AM 78.8 °F - 71.6 °F 78% 29.92 in 10.0 mi ENE 12.7 mph - N/A   Mostly Cloudy
8:54 AM 81.9 °F 87.0 °F 72.9 °F 74% 29.91 in 10.0 mi ENE 13.8 mph - N/A   Scattered Clouds
9:54 AM 81.7 °F 86.7 °F 72.5 °F 74% 29.92 in 10.0 mi ENE 18.4 mph 28.8 mph N/A   Mostly Cloudy
10:36 AM 86.0 °F 93.4 °F 73.4 °F 66% 29.93 in 10.0 mi NE 13.8 mph 26.5 mph N/A   Mostly Cloudy
10:54 AM 85.1 °F 92.6 °F 73.8 °F 69% 29.90 in 10.0 mi ENE 15.0 mph 25.3 mph N/A   Mostly Cloudy
11:06 AM 84.2 °F 90.9 °F 73.4 °F 70% 29.92 in 10.0 mi East 19.6 mph 26.5 mph N/A   Partly Cloudy
11:54 AM 84.9 °F 92.1 °F 73.6 °F 69% 29.88 in 10.0 mi ENE 23.0 mph 27.6 mph N/A   Scattered Clouds
12:54 PM 86.2 °F 93.8 °F 73.6 °F 66% 29.86 in 10.0 mi ENE 24.2 mph 29.9 mph N/A   Partly Cloudy
1:54 PM 86.2 °F 94.2 °F 73.9 °F 67% 29.85 in 10.0 mi East 21.9 mph 27.6 mph N/A   Scattered Clouds
2:54 PM 85.3 °F 92.2 °F 73.0 °F 67% 29.83 in 10.0 mi ENE 19.6 mph 31.1 mph N/A   Partly Cloudy
3:45 PM 86.0 °F 93.4 °F 73.4 °F 66% 29.85 in 10.0 mi East 16.1 mph - N/A   Mostly Cloudy
3:54 PM 84.7 °F 91.7 °F 73.4 °F 69% 29.85 in 10.0 mi ENE 17.3 mph 25.3 mph N/A   Mostly Cloudy
4:17 PM 84.2 °F 90.9 °F 73.4 °F 70% 29.85 in 10.0 mi NE 18.4 mph - N/A   Mostly Cloudy
4:54 PM 83.8 °F 91.1 °F 74.3 °F 73% 29.84 in 10.0 mi ENE 13.8 mph - N/A   Scattered Clouds
5:54 PM 81.7 °F 87.3 °F 73.9 °F 77% 29.86 in 10.0 mi NE 16.1 mph - N/A   Scattered Clouds
6:54 PM 79.9 °F - 73.6 °F 81% 29.88 in 10.0 mi ENE 12.7 mph - N/A   Scattered Clouds
7:54 PM 79.5 °F - 74.1 °F 83% 29.90 in 10.0 mi ENE 10.4 mph - N/A   Partly Cloudy
8:54 PM 79.7 °F - 74.3 °F 83% 29.91 in 10.0 mi NE 11.5 mph - N/A   Mostly Cloudy
9:54 PM 79.7 °F - 74.1 °F 83% 29.93 in 10.0 mi ENE 8.1 mph - N/A   Scattered Clouds
10:54 PM 79.3 °F - 74.3 °F 84% 29.93 in 10.0 mi ENE 9.2 mph - N/A   Scattered Clouds
11:54 PM 79.0 °F - 74.5 °F 86% 29.92 in 10.0 mi ENE 8.1 mph - N/A   Scattered Clouds